Everett, WA

1:24 PM PST on December 06, 2019 (GMT -0800)
Snohomish County

Weather History for KPAE - October, 2019

Change the Weather History Date:

Saturday, October 19, 2019

  Actual Average Record
Temperature  
Mean Temperature 46 °F -  
Max Temperature 48 °F 57 °F 72 °F (1948)
Min Temperature 44 °F 41 °F 26 °F (1949)
Degree Days  
Heating Degree Days 19    
Moisture  
Dew Point 44 °F    
Average Humidity 93    
Maximum Humidity 97    
Minimum Humidity 86    
Precipitation  
Precipitation 0.37 in - - ()
Sea Level Pressure  
Sea Level Pressure 29.76 in    
Wind  
Wind Speed 8 mph (SSE)    
Max Wind Speed 17 mph    
Max Gust Speed -    
Visibility 8 miles    
Events Fog , Rain    
Averages and records for this station are not official NWS values.
T = Trace of Precipitation, MM = Missing Value Source: NWS Daily Summary

Daily Weather History Graph

Daily Weather History Graph

Search for Another Location

Airport or City:

Astronomy

Oct. 19, 2019 Rise Set
Actual Time 7:34 AM PDT 6:13 PM PDT
Civil Twilight 7:02 AM PDT 6:44 PM PDT
Nautical Twilight 6:26 AM PDT 7:20 PM PDT
Astronomical Twilight 5:50 AM PDT 7:56 PM PDT
Moon 10:08 PM PDT (10/19) 1:30 PM PDT (10/19)
Length of Visible Light 11h 42m
Length of Day
10h 39m
Waning Gibbous, 68% of the Moon is Illuminated
Oct 19
Waning Gibbous
Oct 21
Last Quarter
Oct 27
New
Nov 4
First Quarter
Nov 12
Full

Hourly Weather History & Observations

Time (PDT) Temp. Windchill Dew Point Humidity Pressure Visibility Wind Dir Wind Speed Gust Speed Precip Events Conditions
12:46 AM 48.0 °F - 45.0 °F 89% 29.73 in 10.0 mi SSE 15.0 mph - 0.00 in Rain Light Rain
12:53 AM 48.0 °F - 45.0 °F 89% 29.73 in 9.0 mi SSE 13.8 mph - 0.00 in Rain Light Rain
1:08 AM 48.0 °F - 45.0 °F 89% 29.72 in 10.0 mi SSE 10.4 mph - 0.01 in Rain Light Rain
1:29 AM 48.0 °F - 46.0 °F 93% 29.71 in 10.0 mi SSE 9.2 mph - 0.01 in Rain Light Rain
1:53 AM 48.0 °F - 46.0 °F 93% 29.70 in 10.0 mi SSE 8.1 mph - 0.01 in Rain Light Rain
2:19 AM 48.0 °F - 46.0 °F 93% 29.68 in 10.0 mi SSE 6.9 mph - 0.02 in Rain Light Rain
2:53 AM 46.9 °F - 45.0 °F 93% 29.65 in 9.0 mi East 6.9 mph - 0.03 in Rain Light Rain
3:53 AM 46.9 °F - 43.0 °F 86% 29.62 in 8.0 mi SSE 17.3 mph - 0.03 in Rain Light Rain
4:53 AM 46.9 °F - 43.0 °F 86% 29.61 in 10.0 mi Calm Calm - 0.01 in Rain Light Rain
5:10 AM 46.9 °F - 44.1 °F 90% 29.61 in 10.0 mi Calm Calm - 0.01 in Rain Light Rain
5:44 AM 46.0 °F - 44.1 °F 93% 29.60 in 10.0 mi Calm Calm - 0.01 in Rain Light Rain
5:53 AM 46.0 °F 44.8 °F 44.1 °F 93% 29.61 in 10.0 mi NE 3.5 mph - 0.01 in Rain Light Rain
6:05 AM 46.0 °F - 44.1 °F 93% 29.61 in 10.0 mi Calm Calm - 0.00 in   Overcast
6:48 AM 44.6 °F 43.1 °F 42.8 °F 93% 29.62 in 10.0 mi ESE 3.5 mph - 0.00 in Rain Light Rain
6:53 AM 45.0 °F 43.5 °F 43.0 °F 93% 29.63 in 10.0 mi ESE 3.5 mph - 0.00 in Rain Light Rain
7:24 AM 45.0 °F 41.8 °F 43.0 °F 93% 29.63 in 8.0 mi SSE 5.8 mph - 0.02 in Rain Light Rain
7:53 AM 45.0 °F 41.2 °F 42.1 °F 90% 29.65 in 10.0 mi South 6.9 mph - 0.02 in Rain Light Rain
8:53 AM 45.0 °F 41.8 °F 44.1 °F 97% 29.68 in 10.0 mi South 5.8 mph - 0.01 in Rain Light Rain
9:05 AM 45.0 °F 41.2 °F 44.1 °F 97% 29.67 in 6.0 mi South 6.9 mph - 0.00 in   Overcast
9:26 AM 45.0 °F 41.2 °F 44.1 °F 97% 29.68 in 6.0 mi SSW 6.9 mph - 0.00 in   Overcast
9:53 AM 45.0 °F 41.2 °F 44.1 °F 97% 29.70 in 6.0 mi SSW 6.9 mph - 0.00 in Rain Light Rain
10:53 AM 46.0 °F 43.9 °F 44.1 °F 93% 29.73 in 3.0 mi South 4.6 mph - 0.04 in Rain Light Rain
11:00 AM 46.0 °F 42.5 °F 45.0 °F 96% 29.73 in 5.0 mi South 6.9 mph - 0.00 in Rain Light Rain
11:07 AM 46.0 °F 42.5 °F 45.0 °F 96% 29.73 in 3.0 mi South 6.9 mph - 0.00 in Rain Light Rain
11:53 AM 46.9 °F - 45.0 °F 93% 29.76 in 5.0 mi South 3.5 mph - 0.02 in Rain Light Rain
12:53 PM 46.9 °F - 46.0 °F 97% 29.79 in 4.0 mi Calm Calm - 0.05 in Rain Light Rain
1:53 PM 46.0 °F - 44.1 °F 93% 29.81 in 4.0 mi Calm Calm - 0.08 in Rain Rain
2:53 PM 46.9 °F - 45.0 °F 93% 29.83 in 4.0 mi SSE 9.2 mph - 0.01 in   Overcast
3:53 PM 46.9 °F - 46.0 °F 97% 29.86 in 5.0 mi SSE 8.1 mph - 0.01 in Rain Light Rain
4:53 PM 48.0 °F - 46.0 °F 93% 29.88 in 10.0 mi South 5.8 mph - 0.03 in   Overcast
5:00 PM 48.0 °F - 46.0 °F 93% 29.87 in 10.0 mi SSE 5.8 mph - N/A   Mostly Cloudy
5:53 PM 48.9 °F - 46.0 °F 90% 29.91 in 10.0 mi SSE 4.6 mph - N/A   Mostly Cloudy
6:00 PM 48.0 °F - 45.0 °F 89% 29.90 in 10.0 mi SSE 4.6 mph - N/A   Overcast
6:53 PM 46.0 °F 43.9 °F 44.1 °F 93% 29.94 in 10.0 mi ESE 4.6 mph - N/A   Partly Cloudy
7:38 PM 45.0 °F 41.2 °F 44.1 °F 97% 29.95 in 5.0 mi ESE 6.9 mph - N/A Fog Patches of Fog
7:53 PM 45.0 °F - 44.1 °F 97% 29.97 in 8.0 mi Calm Calm - N/A Fog Patches of Fog
8:53 PM 46.0 °F 44.8 °F 44.1 °F 93% 29.99 in 10.0 mi Variable 3.5 mph - N/A Fog Patches of Fog
9:53 PM 46.9 °F - 43.0 °F 86% 30.01 in 10.0 mi SSE 9.2 mph - N/A Fog Patches of Fog
10:53 PM 46.0 °F 41.4 °F 43.0 °F 89% 30.04 in 10.0 mi SSE 9.2 mph - N/A Fog Patches of Fog
11:53 PM 46.0 °F 40.6 °F 43.0 °F 89% 30.04 in 10.0 mi SSE 11.5 mph - 0.01 in Fog Patches of Fog